BEIDOU-3 G1 (C59)

Last updated on Mon Oct 20 2025 00:03:25 GMT+0000 (Coordinated Universal Time)

1 43683U 18085A 25292.29628176 -.00000276 00000+0 00000+0 0 9991 2 43683 2.9681 104.1378 0002989 13.8984 156.7263 1.00269585 25640
UTC large
Height (km)
Speed (km/s)
/
Latitude / Longitude
Inclination (degrees)
Orbital Period (minutes)
Azimuth
Elevation
Range (km)
Doppler Factor

Next 0 passes for location: London (51.5072 / 0.1276)

Sorry there are no passes over London.